Change the Weather History Date:

Friday, February 21, 2014

  Actual Average (KBTL) Record (KBTL)
Temperature  
Mean Temperature 34 °F 28 °F  
Max Temperature 40 °F 37 °F 57 °F (1997)
Min Temperature 28 °F 18 °F 3 °F (2008)
Degree Days  
Heating Degree Days 31 37  
Month to date heating degree days 829  
Since 1 July heating degree days 4712  
Cooling Degree Days 0 0  
Month to date cooling degree days 0  
Year to date cooling degree days 0  
Moisture  
Dew Point 23 °F    
Average Humidity 68    
Maximum Humidity 84    
Minimum Humidity 51    
Precipitation  
Precipitation 0.00 in 0.05 in 0.14 in (2011)
Month to date precipitation 0.94  
Year to date precipitation 2.60  
Sea Level Pressure  
Sea Level Pressure 29.55 in    
Wind  
Wind Speed 20 mph (SW)    
Max Wind Speed 31 mph    
Max Gust Speed 41 mph    
Visibility 10 miles    
Events      
T = Trace of Precipitation, MM = Missing Value Source: NWS Daily Summary

Daily Weather History Graph

Daily Weather History Graph

Search for Another Location

Airport or City:

Trip Planner

Search our weather history database for the weather conditions in past years. The results will help you decide how hot, cold, wet, or windy it might be!

Date:

Astronomy

Feb. 21, 2014 Rise Set
Actual Time 7:27 AM EST 6:19 PM EST
Civil Twilight 6:59 AM EST 6:48 PM EST
Nautical Twilight 6:26 AM EST 7:21 PM EST
Astronomical Twilight 5:54 AM EST 7:53 PM EST
Moon 12:19 AM EST (2/21) 10:43 AM EST (2/21)
Length of Visible Light 11h 49m
Length of Day
10h 52m
Waning Gibbous, 61% of the Moon is Illuminated
Feb 21
Waning Gibbous
Feb 22
Last Quarter
Mar 1
New
Mar 8
First Quarter
Mar 16
Full

Hourly Weather History & Observations

Time (EST) Temp. Windchill Dew Point Humidity Pressure Visibility Wind Dir Wind Speed Gust Speed Precip Events Conditions
12:13 AM 40.1 °F 30.7 °F 35.6 °F 84% 29.40 in 10.0 mi SW 19.6 mph 28.8 mph N/A   Overcast
12:34 AM 37.6 °F 26.6 °F 32.0 °F 80% 29.42 in 10.0 mi SW 23.0 mph 34.5 mph N/A   Overcast
12:54 AM 36.5 °F 25.4 °F 31.5 °F 82% 29.42 in 10.0 mi SW 21.9 mph 27.6 mph N/A   Overcast
1:13 AM 36.0 °F 26.3 °F 30.4 °F 80% 29.41 in 10.0 mi SW 16.1 mph 25.3 mph N/A   Overcast
1:34 AM 35.8 °F 25.1 °F 29.8 °F 79% 29.41 in 10.0 mi SW 19.6 mph 27.6 mph N/A   Overcast
1:54 AM 35.6 °F 25.2 °F 29.3 °F 78% 29.42 in 10.0 mi SW 18.4 mph 26.5 mph N/A   Overcast
2:13 AM 35.1 °F 25.2 °F 29.3 °F 80% 29.42 in 10.0 mi SW 16.1 mph 24.2 mph N/A   Overcast
2:34 AM 35.1 °F 25.5 °F 28.9 °F 78% 29.42 in 10.0 mi SW 15.0 mph 23.0 mph N/A   Overcast
2:54 AM 35.1 °F 25.9 °F 28.6 °F 77% 29.43 in 10.0 mi SSW 13.8 mph 26.5 mph N/A   Overcast
3:13 AM 35.1 °F 25.5 °F 28.4 °F 77% 29.42 in 10.0 mi SW 15.0 mph 26.5 mph N/A   Overcast
3:34 AM 35.1 °F 23.3 °F 28.2 °F 76% 29.42 in 10.0 mi SW 23.0 mph 31.1 mph N/A   Overcast
3:54 AM 35.1 °F 25.2 °F 28.2 °F 76% 29.42 in 10.0 mi SW 16.1 mph 31.1 mph N/A   Overcast
4:14 AM 35.1 °F 26.4 °F 27.9 °F 75% 29.43 in 10.0 mi SW 12.7 mph 24.2 mph N/A   Overcast
4:34 AM 35.1 °F 22.7 °F 27.7 °F 74% 29.43 in 10.0 mi SW 25.3 mph 33.4 mph N/A   Overcast
4:54 AM 34.9 °F 23.6 °F 27.5 °F 74% 29.44 in 10.0 mi SW 20.7 mph 34.5 mph N/A   Overcast
5:14 AM 34.7 °F 23.7 °F 27.5 °F 75% 29.44 in 10.0 mi SW 19.6 mph 32.2 mph N/A   Overcast
5:34 AM 34.7 °F 22.2 °F 27.5 °F 75% 29.44 in 10.0 mi SW 25.3 mph 32.2 mph N/A   Overcast
5:54 AM 34.5 °F 23.1 °F 27.1 °F 74% 29.45 in 10.0 mi SW 20.7 mph 32.2 mph N/A   Overcast
6:14 AM 34.3 °F 22.6 °F 26.8 °F 74% 29.45 in 10.0 mi SW 21.9 mph 28.8 mph N/A   Overcast
6:34 AM 34.2 °F 23.6 °F 27.0 °F 75% 29.45 in 10.0 mi SW 17.3 mph 31.1 mph N/A   Overcast
6:54 AM 34.2 °F 24.0 °F 26.8 °F 74% 29.45 in 10.0 mi SSW 16.1 mph 29.9 mph N/A   Overcast
7:14 AM 34.0 °F 22.7 °F 27.0 °F 75% 29.45 in 10.0 mi SSW 19.6 mph 28.8 mph N/A   Overcast
7:34 AM 34.0 °F 22.1 °F 26.2 °F 73% 29.45 in 10.0 mi SW 21.9 mph 29.9 mph N/A   Overcast
7:54 AM 34.0 °F 23.0 °F 26.2 °F 73% 29.45 in 10.0 mi SW 18.4 mph 29.9 mph N/A   Overcast
8:14 AM 34.0 °F 23.4 °F 26.1 °F 73% 29.45 in 10.0 mi SW 17.3 mph 33.4 mph N/A   Overcast
8:34 AM 33.8 °F 22.5 °F 26.4 °F 74% 29.46 in 10.0 mi SW 19.6 mph 38.0 mph N/A   Overcast
8:54 AM 33.6 °F 20.8 °F 26.4 °F 75% 29.46 in 10.0 mi SW 25.3 mph 32.2 mph N/A   Overcast
9:14 AM 33.3 °F 20.9 °F 26.8 °F 77% 29.47 in 10.0 mi SSW 23.0 mph 33.4 mph N/A   Overcast
9:34 AM 32.9 °F 20.7 °F 27.1 °F 79% 29.47 in 10.0 mi SW 21.9 mph 32.2 mph N/A   Overcast
9:54 AM 32.4 °F 21.7 °F 27.1 °F 81% 29.48 in 10.0 mi SW 16.1 mph 26.5 mph N/A   Overcast
10:14 AM 32.0 °F 18.9 °F 25.5 °F 77% 29.49 in 10.0 mi WSW 24.2 mph 35.7 mph N/A   Overcast
10:34 AM 32.0 °F 19.5 °F 24.8 °F 75% 29.49 in 10.0 mi WSW 21.9 mph 29.9 mph N/A   Overcast
10:54 AM 31.8 °F 17.6 °F 25.2 °F 76% 29.50 in 10.0 mi SW 28.8 mph 39.1 mph N/A   Overcast
11:14 AM 31.3 °F 17.1 °F 23.4 °F 72% 29.50 in 10.0 mi SW 27.6 mph 41.4 mph N/A   Overcast
11:33 AM 31.1 °F 17.2 °F 23.7 °F 74% 29.51 in 10.0 mi SW 26.5 mph 35.7 mph N/A   Overcast
11:54 AM 30.9 °F 17.2 °F 24.8 °F 78% 29.51 in 7.0 mi SW 25.3 mph 32.2 mph N/A   Overcast
12:14 PM 31.1 °F 18.6 °F 24.4 °F 76% 29.52 in 10.0 mi SW 20.7 mph 38.0 mph N/A   Overcast
12:34 PM 30.9 °F 16.7 °F 24.1 °F 76% 29.52 in 10.0 mi SW 27.6 mph 33.4 mph N/A   Overcast
12:54 PM 30.6 °F 17.0 °F 23.0 °F 74% 29.52 in 10.0 mi SW 24.2 mph 35.7 mph N/A   Overcast
1:14 PM 31.1 °F 18.6 °F 20.8 °F 66% 29.53 in 10.0 mi WSW 20.7 mph 41.4 mph N/A   Overcast
1:34 PM 31.1 °F 18.3 °F 20.8 °F 66% 29.54 in 10.0 mi SW 21.9 mph 35.7 mph N/A   Overcast
1:54 PM 31.5 °F 18.2 °F 21.4 °F 66% 29.54 in 10.0 mi SW 24.2 mph 34.5 mph N/A   Overcast
2:14 PM 31.3 °F 17.9 °F 19.8 °F 62% 29.55 in 10.0 mi SW 24.2 mph 40.3 mph N/A   Overcast
2:34 PM 31.8 °F 17.6 °F 19.4 °F 60% 29.55 in 10.0 mi SW 28.8 mph 38.0 mph N/A   Overcast
2:54 PM 31.8 °F 17.2 °F 19.2 °F 60% 29.56 in 10.0 mi SW 31.1 mph 40.3 mph N/A   Overcast
3:14 PM 32.0 °F 18.4 °F 19.4 °F 60% 29.57 in 10.0 mi WSW 26.5 mph 38.0 mph N/A   Mostly Cloudy
3:34 PM 32.0 °F 18.4 °F 18.7 °F 58% 29.59 in 10.0 mi SW 26.5 mph 39.1 mph N/A   Scattered Clouds
3:54 PM 31.6 °F 17.6 °F 17.6 °F 56% 29.60 in 10.0 mi WSW 27.6 mph 40.3 mph N/A   Scattered Clouds
4:14 PM 32.0 °F 17.6 °F 17.8 °F 56% 29.61 in 10.0 mi WSW 29.9 mph 38.0 mph N/A   Scattered Clouds
4:34 PM 31.6 °F 18.7 °F 18.1 °F 57% 29.62 in 10.0 mi SW 23.0 mph 32.2 mph N/A   Scattered Clouds
4:54 PM 31.6 °F 18.7 °F 17.6 °F 56% 29.63 in 10.0 mi WSW 23.0 mph 31.1 mph N/A   Clear
5:14 PM 31.3 °F 21.1 °F 17.4 °F 57% 29.64 in 10.0 mi SW 13.8 mph 31.1 mph N/A   Clear
5:34 PM 30.9 °F 18.7 °F 16.7 °F 56% 29.65 in 10.0 mi SW 19.6 mph 28.8 mph N/A   Clear
5:54 PM 30.9 °F 19.1 °F 15.8 °F 54% 29.66 in 10.0 mi SW 18.4 mph 29.9 mph N/A   Clear
6:14 PM 30.2 °F 18.9 °F 14.5 °F 52% 29.66 in 10.0 mi SW 16.1 mph 32.2 mph N/A   Clear
6:34 PM 29.7 °F 17.1 °F 14.9 °F 54% 29.68 in 10.0 mi SW 19.6 mph 29.9 mph N/A   Clear
6:54 PM 29.3 °F 16.6 °F 14.2 °F 53% 29.68 in 10.0 mi SW 19.6 mph 25.3 mph N/A   Clear
7:13 PM 29.1 °F 16.4 °F 12.9 °F 51% 29.69 in 10.0 mi SW 19.6 mph 26.5 mph N/A   Clear
7:34 PM 28.9 °F 16.5 °F 13.1 °F 52% 29.70 in 10.0 mi SW 18.4 mph 29.9 mph N/A   Clear
7:54 PM 29.1 °F 16.7 °F 13.6 °F 52% 29.71 in 10.0 mi SW 18.4 mph 28.8 mph N/A   Clear
8:13 PM 28.9 °F 15.4 °F 14.9 °F 56% 29.71 in 10.0 mi SW 21.9 mph 28.8 mph N/A   Clear
8:34 PM 28.9 °F 16.1 °F 15.8 °F 58% 29.71 in 10.0 mi SW 19.6 mph 26.5 mph N/A   Clear
8:54 PM 29.3 °F 17.7 °F 16.2 °F 58% 29.72 in 10.0 mi SW 16.1 mph 27.6 mph N/A   Clear
9:13 PM 29.3 °F 17.0 °F 16.7 °F 59% 29.73 in 10.0 mi SW 18.4 mph 25.3 mph N/A   Clear
9:34 PM 29.7 °F 18.2 °F 17.2 °F 60% 29.74 in 10.0 mi SW 16.1 mph 24.2 mph N/A   Clear
9:54 PM 30.0 °F 18.7 °F 18.1 °F 61% 29.74 in 10.0 mi SW 16.1 mph 24.2 mph N/A   Scattered Clouds
10:13 PM 30.9 °F 19.1 °F 18.9 °F 61% 29.75 in 10.0 mi SW 18.4 mph 25.3 mph N/A   Mostly Cloudy
10:34 PM 32.0 °F 22.5 °F 19.4 °F 60% 29.75 in 10.0 mi SW 12.7 mph 25.3 mph N/A   Overcast
10:54 PM 32.2 °F 20.7 °F 19.9 °F 61% 29.75 in 10.0 mi SW 18.4 mph 31.1 mph N/A   Overcast
11:14 PM 32.5 °F 21.9 °F 20.1 °F 60% 29.74 in 10.0 mi WSW 16.1 mph 26.5 mph N/A   Overcast
11:34 PM 32.9 °F 21.6 °F 20.1 °F 59% 29.74 in 10.0 mi WSW 18.4 mph 24.2 mph N/A   Overcast
11:54 PM 33.1 °F 23.0 °F 20.1 °F 59% 29.75 in 10.0 mi SW 15.0 mph 28.8 mph N/A   Overcast